AirNav   Air Wisconsin pilot careers
 
 368 users online  

6MD6 Um Charles Regional Medical Center Heliport
La Plata, Maryland, USA

GOING TO LA PLATA?


FAA INFORMATION EFFECTIVE 29 MARCH 2018

Location

FAA Identifier: 6MD6
Lat/Long: 38-31-42.6300N / 076-58-15.5200W
38-31.710500N / 076-58.258667W
38.5285083 / -76.9709778
(estimated)
Elevation: 168 ft. / 51 m (estimated)
Time zone: UTC -4 (UTC -5 during Standard Time)
Zip code: 20646

Heliport Operations

Heliport use: Private use, MEDICAL USE.
Activation date: 03/2007
Control tower: no
ARTCC: WASHINGTON CENTER
FSS: LEESBURG FLIGHT SERVICE STATION
Attendance: UNATNDD
Wind indicator: yes
Segmented circle: no
Lights: ACTVT PERIMETER LGTS - 123.05.

Heliport Communications

WX ASOS at DCA (20 nm N): 132.65 (703-412-8140)

Nearby radio navigation aids

VOR radial/distance  VOR name  Freq  Var
OTTr235/15.0NOTTINGHAM VORTAC113.7010W
ADWr206/17.4ANDREWS VORTAC113.1010W
DCAr180/20.1WASHINGTON VOR/DME111.0009W
BRVr066/21.3BROOKE VORTAC114.5009W
PXTr308/30.5PATUXENT VORTAC117.6010W
AMLr144/33.6ARMEL VOR/DME113.5008W

 
NDB name  Hdg/Dist  Freq  Var  ID
DAVEE150/10.322309WDAA -.. .- .-
OXONN180/14.533211WDCA -.. -.-. .-
GEORGETOWN172/25.132309WGTN --. - -.
SHANNON065/27.523710WEZF . --.. ..-.
PATUXENT309/30.440010WNHK -. .... -.-

Heliport Services

Runway Information

Helipad H1

Dimensions: 42 x 42 ft. / 13 x 13 m
Surface: concrete
Runway edge lights: PERI
Latitude: 38-31.710500N
Longitude: 076-58.258667W
Elevation: 168.0 ft.
Traffic pattern: leftleft

Heliport Ownership and Management from official FAA records

Ownership: Privately-owned
Owner: UM CHARLES REGIONAL MEDICAL CENTER
701 E. CHARLES ST.
LA PLATA, MD 20646
Phone 301-609-4000
Manager: LAURI CRESS
701 E. CHARLES ST.
LA PLATA, MD 20646
Phone 301-609-4453
DIRECTOR OF FACILITIES.

Instrument Procedures

There are no published instrument procedures at 6MD6.

Some nearby airports with instrument procedures:

2W5 - Maryland Airport (6 nm NW)
KVKX - Potomac Airfield (13 nm N)
W32 - Washington Executive Airport/Hyde Field (13 nm N)
KDAA - Davison Army Airfield (15 nm NW)
KNYG - Quantico Marine Corps Airfield / Turner Field (16 nm W)
KADW - Joint Base Andrews (18 nm N)
KDCA - Ronald Reagan Washington National Airport (20 nm N)
 
Loc | Ops | Rwys | IFR | FBO | Links
Com | Nav | Svcs | Stats | Notes

AirNav Hotels Sweepstakes
 
Area around 6MD6 (Um Charles Regional Medical Center Heliport)
 
Road maps at: MapQuest Bing Google
 
Aerial photo
No photo
 
Sectional chart

 
Airport distance calculator
Flying to Um Charles Regional Medical Center Heliport? Find the distance to fly.

From to 6MD6

Sunrise and sunset
Times for 21-Apr-2018
 Local
(UTC-4)
 Zulu
(UTC)
Morning civil twilight05:5709:57
Sunrise06:2510:25
Sunset19:4923:49
Evening civil twilight20:1700:17

Current date and time
Zulu (UTC)  21-Apr-2018 10:11:44
Local (UTC-4)  21-Apr-2018 06:11:44
 
METAR
KVKX 
13nm N 
SuperAWOS
210935Z AUTO 00000KT 10SM 00/M02 A3046
KDAA 
15nm NW 
210956Z AUTO 00000KT 10SM CLR 02/M03 A3046 RMK AO2 SLP318 T00171030 $
KNYG 
15nm W 
210956Z AUTO 08006KT 10SM CLR 07/M01 A3048 RMK AO2 SLP320 T00721006 $
KADW 
18nm N 
210956Z AUTO 00000KT 10SM CLR 02/M03 A3044 RMK AO2 SLP316 T00201033 $
KDCA 
20nm N 
210952Z 06004KT 10SM FEW250 06/M02 A3047 RMK AO2 SLP317 T00561022
K2W6 
24nm SE 
210957Z AUTO 00000KT 10SM CLR 03/M01 A3046 RMK AO1
KRMN 
24nm W 
210955Z AUTO 00000KT 10SM CLR 02/M01 A3049 RMK AO2 T00201014
TAF
KDAA 
15nm NW 
210100Z 2101/2207 36009KT 9999 FEW040 QNH3031INS BECMG 2205/2206 36009KT 9999 SCT150 QNH3036INS TX16/2121Z TN02/2109Z LAST NO AMDS AFT 2101 NEXT 2309
KNYG 
15nm W 
2021/2121 33012G23KT 9999 SKC 530009 QNH3028INS BECMG 2021/2023 33009KT 510009 QNH3029INS FM210500 34006KT 9999 FEW050 500000 QNH3038INS BECMG 2119/2121 VRB06KT FEW050 SCT180 QNH3034INS T03/2111Z T19/2121Z LAST NO AMDS UNTIL 2309Z
KADW 
18nm N 
210100Z 2101/2207 36009KT 9999 FEW040 QNH3030INS BECMG 2205/2206 36009KT 9999 SCT150 QNH3035INS TX16/2121Z TN02/2109Z
KDCA 
20nm N 
210539Z 2106/2212 06010KT P6SM SKC FM211000 35005KT P6SM SCT250 FM212200 15005KT P6SM OVC150
NOTAMs
Click for the latest NOTAMs
NOTAMs are issued by the DoD/FAA and will open in a separate window not controlled by AirNav.

 

 
 

Would you like to see your business listed on this page?

 If your business provides an interesting product or service to pilots, flight crews, aircraft, or users of the Um Charles Regional Medical Center Heliport, you should consider listing it here.  To start the listing process, click on the button below
 
Add a business
 

Other Pages about Um Charles Regional Medical Center Heliport

Update a link
 
Copyright © AirNav, LLC. All rights reserved. Privacy Policy  Contact